Home   Weather   Santa Rosa   Past weeks
Flag for USA

Past Weather in Santa Rosa, California, USA — Yesterday and Last 2 Weeks

Now
44 °F

Overcast.


Feels Like: 44 °F
Forecast: 71 / 45 °F
Wind: No wind

Location: Santa Rosa Sonoma County Airport

Current Time: Oct 19, 2019 at 8:25:13 am

Latest Report: Oct 19, 2019 at 6:53 am


Visibility: 8 mi

Pressure: 30.06 "Hg

Humidity: 96%

Dew Point: 43 °F

Location of Santa RosaLocation

Past Weather in Santa Rosa — Graph

°F

Santa Rosa Temperature Yesterday

Maximum temperature yesterday: 70 °F (at 1:53 pm)
Minimum temperature yesterday: 45 °F (at 6:53 am)
Average temperature yesterday: 57 °F

High & Low Weather Summary for the Past Weeks

 TemperatureHumidityPressure
High90 °F (Oct 7, 3:53 pm)100% (Oct 14, 12:10 am)30.16 "Hg (Oct 14, 12:10 am)
Low34 °F (Oct 11, 6:53 am)3% (Oct 9, 3:53 pm)29.79 "Hg (Oct 8, 5:53 pm)
Average58 °F59%29.96 "Hg
* Reported Oct 4 6:53 am — Oct 19 6:53 am, Santa Rosa. Weather by CustomWeather, © 2019

Note: Actual official high and low records may vary slightly from our data, if they occured in-between our weather recording intervals... More about our weather records

Advertising

Santa Rosa Weather History for the Previous 24 Hours

Scroll right to see more
 ConditionsComfort  
Time TempWeatherWind HumidityBarometerVisibility
6:53 am
Sat, Oct 19
44 °FOvercast.No wind96%30.06 "Hg8 mi
5:53 am43 °FClear.3 mph97%30.03 "Hg8 mi
4:53 am44 °FClear.No wind96%30.04 "Hg8 mi
3:53 am43 °FClear.No wind97%30.05 "Hg7 mi
2:53 am44 °FClear.No wind96%30.05 "Hg7 mi
1:53 am43 °FClear.No wind97%30.05 "Hg7 mi
12:53 am46 °FClear.5 mph96%30.05 "Hg8 mi
11:53 pm
Fri, Oct 18
49 °FClear.No wind93%30.05 "Hg8 mi
10:53 pm49 °FClear.No wind93%30.05 "Hg9 mi
9:53 pm51 °FClear.No wind89%30.04 "Hg9 mi
8:53 pm54 °FClear.No wind80%30.03 "Hg9 mi
7:53 pm56 °FClear.5 mph77%30.02 "Hg9 mi
6:53 pm60 °FClear.6 mph69%29.99 "Hg10 mi
5:53 pm66 °FSunny.6 mph59%29.99 "Hg9 mi
4:53 pm69 °FSunny.7 mph53%29.99 "Hg10 mi
3:53 pm70 °FSunny.9 mph51%30.00 "Hg10 mi
2:53 pm69 °FPassing clouds.9 mph53%30.01 "Hg10 mi
1:53 pm70 °FScattered clouds.5 mph46%30.01 "Hg10 mi
12:53 pm67 °FScattered clouds.3 mph55%30.04 "Hg10 mi
11:53 am64 °FScattered clouds.3 mph63%30.05 "Hg10 mi
10:53 am60 °FPartly sunny.No wind67%30.06 "Hg10 mi
9:53 am56 °FPartly sunny.No wind72%30.07 "Hg10 mi
8:53 am53 °FScattered clouds.No wind80%30.06 "Hg10 mi
Weather by CustomWeather, © 2019

See weather overview